JIA5211 KDFW-KHSV

Flight info

Callsign JIA5211
Flight time N/A
Altitude 35000
Route FORCK3 FORCK ELD SQS DCU
Aircraft CRJ9/M-SDFGIRWY/S

Departure

Time 2026-05-03 23:10
Airport Dallas Fort Worth International Airport (KDFW)

Arrival

Time N/A
Airport Huntsville International Airport (KHSV)
Time Latitude Longitude Altitude Speed Heading
2026-05-03 22:47 32.88734 -97.03770 583 ft 0 kts 346°
2026-05-03 22:56 32.88728 -97.03768 583 ft 2 kts 346°
2026-05-03 22:57 32.88717 -97.03765 583 ft 2 kts 346°
2026-05-03 22:57 32.88706 -97.03762 583 ft 2 kts 346°
2026-05-03 22:57 32.88697 -97.03760 583 ft 1 kts 356°
2026-05-03 22:57 32.88690 -97.03761 583 ft 1 kts 28°
2026-05-03 22:58 32.88686 -97.03765 583 ft 1 kts 48°
2026-05-03 22:58 32.88684 -97.03767 583 ft 0 kts 50°
2026-05-03 22:59 32.88687 -97.03762 583 ft 2 kts 53°
2026-05-03 22:59 32.88696 -97.03735 583 ft 5 kts 78°
2026-05-03 22:59 32.88704 -97.03689 583 ft 6 kts 73°
2026-05-03 23:00 32.88727 -97.03635 583 ft 8 kts 57°
2026-05-03 23:00 32.88767 -97.03583 582 ft 8 kts 41°
2026-05-03 23:00 32.88810 -97.03539 582 ft 8 kts 37°
2026-05-03 23:00 32.88856 -97.03506 582 ft 7 kts 26°
2026-05-03 23:01 32.88902 -97.03483 594 ft 7 kts 22°
2026-05-03 23:01 32.88937 -97.03441 582 ft 8 kts 68°
2026-05-03 23:01 32.88949 -97.03380 582 ft 7 kts 75°
2026-05-03 23:01 32.88980 -97.03336 582 ft 7 kts 31°
2026-05-03 23:02 32.89031 -97.03320 581 ft 8 kts
2026-05-03 23:02 32.89085 -97.03319 581 ft 9 kts 360°
2026-05-03 23:02 32.89150 -97.03319 581 ft 10 kts 360°
2026-05-03 23:02 32.89227 -97.03319 581 ft 12 kts
2026-05-03 23:03 32.89315 -97.03318 582 ft 13 kts
2026-05-03 23:03 32.89410 -97.03317 583 ft 14 kts
2026-05-03 23:03 32.89509 -97.03317 584 ft 14 kts
2026-05-03 23:03 32.89602 -97.03316 584 ft 13 kts
2026-05-03 23:04 32.89689 -97.03316 584 ft 12 kts
2026-05-03 23:04 32.89773 -97.03315 584 ft 12 kts
2026-05-03 23:04 32.89861 -97.03315 584 ft 13 kts
2026-05-03 23:04 32.89952 -97.03315 584 ft 13 kts
2026-05-03 23:05 32.90049 -97.03314 584 ft 14 kts
2026-05-03 23:05 32.90149 -97.03313 583 ft 15 kts
2026-05-03 23:05 32.90251 -97.03313 583 ft 14 kts
2026-05-03 23:05 32.90347 -97.03312 583 ft 14 kts
2026-05-03 23:06 32.90448 -97.03312 583 ft 15 kts
2026-05-03 23:06 32.90558 -97.03311 583 ft 16 kts
2026-05-03 23:06 32.90676 -97.03310 583 ft 18 kts
2026-05-03 23:06 32.90800 -97.03310 584 ft 18 kts 360°
2026-05-03 23:07 32.90909 -97.03309 583 ft 15 kts
2026-05-03 23:07 32.91023 -97.03284 579 ft 18 kts 21°
2026-05-03 23:07 32.91137 -97.03272 578 ft 16 kts 359°
2026-05-03 23:07 32.91247 -97.03273 580 ft 15 kts 359°
2026-05-03 23:08 32.91355 -97.03273 579 ft 16 kts
2026-05-03 23:08 32.91460 -97.03268 575 ft 11 kts 20°
2026-05-03 23:08 32.91486 -97.03186 576 ft 12 kts 89°
2026-05-03 23:08 32.91486 -97.03093 575 ft 11 kts 90°
2026-05-03 23:09 32.91486 -97.03020 576 ft 6 kts 97°
2026-05-03 23:09 32.91458 -97.02991 577 ft 6 kts 169°
2026-05-03 23:09 32.91370 -97.02988 576 ft 29 kts 180°
2026-05-03 23:09 32.90967 -97.02991 576 ft 86 kts 180°
2026-05-03 23:10 32.90202 -97.02996 575 ft 131 kts 180°
2026-05-03 23:10 32.89181 -97.02997 732 ft 153 kts 182°
2026-05-03 23:10 32.88135 -97.03016 1351 ft 152 kts 181°
2026-05-03 23:10 32.87044 -97.03072 1783 ft 159 kts 184°
2026-05-03 23:11 32.85885 -97.03123 2094 ft 176 kts 182°
2026-05-03 23:11 32.84576 -97.03100 2233 ft 205 kts 180°
2026-05-03 23:11 32.83058 -97.03030 2537 ft 230 kts 179°
2026-05-03 23:11 32.81404 -97.02984 3016 ft 245 kts 180°
2026-05-03 23:12 32.79683 -97.02937 3926 ft 247 kts 181°
2026-05-03 23:12 32.77950 -97.02948 4927 ft 251 kts 182°
2026-05-03 23:12 32.76207 -97.02954 5844 ft 257 kts 182°
2026-05-03 23:12 32.74416 -97.02955 6782 ft 260 kts 181°
2026-05-03 23:13 32.72605 -97.02665 7585 ft 269 kts 158°
2026-05-03 23:13 32.71139 -97.01201 8450 ft 281 kts 131°
2026-05-03 23:13 32.70046 -96.99281 9282 ft 288 kts 123°
2026-05-03 23:13 32.69287 -96.97036 10086 ft 298 kts 108°
2026-05-03 23:14 32.68759 -96.94573 10506 ft 318 kts 102°
2026-05-03 23:14 32.68657 -96.91876 10933 ft 337 kts 85°
2026-05-03 23:14 32.68950 -96.89053 11434 ft 352 kts 82°
2026-05-03 23:14 32.69301 -96.86138 12120 ft 358 kts 82°
2026-05-03 23:15 32.69600 -96.83183 12892 ft 363 kts 84°
2026-05-03 23:15 32.69838 -96.80176 13556 ft 370 kts 84°
2026-05-03 23:15 32.70282 -96.77156 14324 ft 372 kts 77°
2026-05-03 23:15 32.70940 -96.74168 15018 ft 378 kts 73°
2026-05-03 23:16 32.71675 -96.71120 15443 ft 390 kts 73°
2026-05-03 23:16 32.72414 -96.67988 16009 ft 397 kts 74°
2026-05-03 23:16 32.73104 -96.64791 16642 ft 401 kts 75°
2026-05-03 23:16 32.73781 -96.61568 17344 ft 403 kts 74°
2026-05-03 23:17 32.74467 -96.58336 18051 ft 405 kts 74°
2026-05-03 23:17 32.75157 -96.55086 18720 ft 406 kts 73°
2026-05-03 23:17 32.75846 -96.51829 19312 ft 408 kts 73°
2026-05-03 23:17 32.76540 -96.48558 19895 ft 409 kts 73°
2026-05-03 23:18 32.77241 -96.45271 20440 ft 412 kts 73°
2026-05-03 23:18 32.77945 -96.41960 20946 ft 416 kts 72°
2026-05-03 23:18 32.78654 -96.38613 21435 ft 419 kts 72°
2026-05-03 23:18 32.79365 -96.35245 21909 ft 422 kts 72°
2026-05-03 23:19 32.80027 -96.31827 22381 ft 427 kts 77°
2026-05-03 23:19 32.80416 -96.28305 22819 ft 433 kts 81°
2026-05-03 23:19 32.80699 -96.24731 23224 ft 437 kts 81°
2026-05-03 23:19 32.80993 -96.21113 23626 ft 442 kts 81°
2026-05-03 23:20 32.81337 -96.17467 23954 ft 445 kts 79°
2026-05-03 23:20 32.81721 -96.13801 24274 ft 450 kts 79°
2026-05-03 23:20 32.82108 -96.10095 24598 ft 453 kts 79°
2026-05-03 23:20 32.82494 -96.06362 24940 ft 457 kts 79°
2026-05-03 23:21 32.82881 -96.02599 25274 ft 460 kts 79°
2026-05-03 23:21 32.83268 -95.98811 25610 ft 462 kts 79°
2026-05-03 23:21 32.83657 -95.95009 25943 ft 464 kts 79°
2026-05-03 23:21 32.84046 -95.91191 26284 ft 466 kts 79°
2026-05-03 23:22 32.84827 -95.83511 26975 ft 469 kts 79°
2026-05-03 23:22 32.85216 -95.79656 27300 ft 471 kts 79°
2026-05-03 23:22 32.85603 -95.75823 27576 ft 474 kts 78°
2026-05-03 23:23 32.86002 -95.71868 27863 ft 477 kts 79°
2026-05-03 23:23 32.86395 -95.67950 28162 ft 479 kts 79°
2026-05-03 23:23 32.86787 -95.64005 28452 ft 481 kts 79°
2026-05-03 23:23 32.87174 -95.60103 28739 ft 482 kts 79°
2026-05-03 23:24 32.87565 -95.56135 29035 ft 484 kts 78°
2026-05-03 23:24 32.87957 -95.52157 29332 ft 485 kts 78°
2026-05-03 23:24 32.88358 -95.48110 29638 ft 486 kts 78°
2026-05-03 23:24 32.88746 -95.44165 29910 ft 487 kts 78°
2026-05-03 23:25 32.89139 -95.40155 30178 ft 489 kts 78°
2026-05-03 23:25 32.89529 -95.36136 30410 ft 490 kts 78°
2026-05-03 23:25 32.89919 -95.32108 30664 ft 491 kts 78°
2026-05-03 23:25 32.90313 -95.28069 30908 ft 491 kts 78°
2026-05-03 23:26 32.90701 -95.24032 31150 ft 492 kts 78°
2026-05-03 23:26 32.91089 -95.19989 31394 ft 492 kts 78°
2026-05-03 23:26 32.91479 -95.15946 31634 ft 492 kts 78°
2026-05-03 23:26 32.91868 -95.11893 31880 ft 492 kts 78°
2026-05-03 23:27 32.92253 -95.07846 32127 ft 492 kts 78°
2026-05-03 23:27 32.92640 -95.03798 32379 ft 492 kts 77°
2026-05-03 23:27 32.93024 -94.99756 32631 ft 492 kts 77°
2026-05-03 23:27 32.93401 -94.95715 32877 ft 491 kts 77°
2026-05-03 23:28 32.93787 -94.91684 33155 ft 490 kts 77°
2026-05-03 23:28 32.94161 -94.87655 33414 ft 489 kts 78°
2026-05-03 23:28 32.94529 -94.83630 33674 ft 488 kts 77°
2026-05-03 23:28 32.94902 -94.79624 33935 ft 486 kts 77°
2026-05-03 23:29 32.95271 -94.75629 34175 ft 485 kts 77°
2026-05-03 23:29 32.95643 -94.71649 34409 ft 483 kts 77°
2026-05-03 23:29 32.96010 -94.67669 34570 ft 484 kts 77°
2026-05-03 23:29 32.96374 -94.63681 34739 ft 484 kts 77°
2026-05-03 23:30 32.96737 -94.59698 34895 ft 484 kts 77°
2026-05-03 23:30 32.97107 -94.55707 35015 ft 486 kts 77°
2026-05-03 23:30 32.97878 -94.47651 35068 ft 494 kts 78°
2026-05-03 23:31 32.98616 -94.39450 35086 ft 502 kts 78°
2026-05-03 23:31 32.99340 -94.31138 35089 ft 506 kts 78°
2026-05-03 23:32 33.00097 -94.24239 35087 ft 503 kts 73°
2026-05-03 23:32 33.01583 -94.16148 35093 ft 499 kts 70°
2026-05-03 23:33 33.03078 -94.08069 35081 ft 499 kts 72°
2026-05-03 23:33 33.04493 -93.99988 35080 ft 498 kts 72°
2026-05-03 23:34 33.05896 -93.91919 35078 ft 497 kts 72°
2026-05-03 23:34 33.07292 -93.83861 35080 ft 496 kts 72°
2026-05-03 23:35 33.08681 -93.75808 35092 ft 495 kts 72°
2026-05-03 23:35 33.10061 -93.67772 35085 ft 494 kts 72°
2026-05-03 23:36 33.11435 -93.59742 35085 ft 494 kts 73°
2026-05-03 23:36 33.12792 -93.51784 35078 ft 493 kts 73°
2026-05-03 23:37 33.14152 -93.43782 35075 ft 492 kts 73°
2026-05-03 23:37 33.15504 -93.35797 35073 ft 491 kts 73°
2026-05-03 23:38 33.16851 -93.27815 35071 ft 490 kts 73°
2026-05-03 23:38 33.18187 -93.19845 35072 ft 489 kts 73°
2026-05-03 23:39 33.19518 -93.11882 35073 ft 489 kts 73°
2026-05-03 23:39 33.20846 -93.03909 35097 ft 490 kts 73°